Tracking 17844 objects as of 25-August-2016
HD Live streaming from Space Station
objects crossing your sky now

COSMOS 252 DEB

Track COSMOS 252 DEB now!
10-day predictions


NORAD ID: 3559
Int'l Code: 1968-097M
Perigee: 505.9 km
Apogee: 1,360.4 km
Inclination: 62.3 °
Period: 103.5 minutes
Semi major axis: 7304 km
RCS: 0.1149 m2 (medium)
Launch date: November 1, 1968
Source: Commonwealth of Independent States (former USSR) (CIS)
Launch site: TYURATAM MISSILE AND SPACE COMPLEX (TTMTR)

Note: This is SATELLITE DEBRIS
Your satellite tracking list
Your tracking list is empty





NASA's NSSDC Master Catalog

Two Line Element Set (TLE):
1 03559U 68097M   16237.18123513  .00000833  00000-0  19091-3 0  9992
2 03559  62.2914  47.0556 0584901  78.1977 288.4032 13.90744620342889
Source of the keplerian elements: AFSPC

N2YO: 424